EHI
0 0 0 0 0 0 0 0 0 0 0 0 0 0 0 0 0 0 1 3 6 7 5 2 1 0 0 0 1 2 2 1 1 1 0 0 0 0 0 0 0 0 0
0 0 0 0 0 0 0 0 0 0 0 0 0 0 0 0 0 0 0 1 4 5 5 4 2 1 1 0 0 1 2 2 1 1 0 0 0 0 0 0 0 0 0
0 1 1 0 0 0 0 0 0 0 0 0 0 0 0 0 0 0 0 0 1 3 5 6 5 3 1 0 0 0 1 2 2 1 0 0 0 0 0 0 0 0 0
1 2 2 1 1 0 0 0 0 0 0 0 0 0 0 0 0 0 0 0 0 1 4 6 5 3 2 1 0 0 1 2 3 1 0 0 0 0 0 0 0 0 0
3 3 3 3 2 1 0 0 0 0 0 0 0 0 0 0 0 0 0 0 0 0 1 3 3 2 1 2 1 1 1 3 4 2 0 0 0 0 0 0 0 0 1
4 4 3 3 3 2 1 0 0 0 0 0 0 0 0 0 0 0 0 0 0 0 0 1 1 0 1 2 3 3 2 3 3 2 0 0 0 0 0 0 0 0 1
5 5 4 3 3 3 2 1 0 0 0 0 0 0 0 0 0 0 0 0 0 0 0 0 0 0 0 1 3 4 4 4 3 2 0 0 0 0 0 0 0 0 1
6 6 5 4 4 3 1 1 1 1 1 0 0 0 0 0 0 0 0 0 0 0 0 0 0 0 0 0 1 3 5 5 4 3 1 0 0 0 0 0 0 0 0
6 6 6 6 5 4 1 1 2 2 1 0 0 0 0 0 0 0 0 0 0 0 0 0 0 0 0 0 0 1 3 4 4 4 2 1 0 0 0 0 0 0 0
7 7 7 7 6 4 3 2 3 3 1 0 0 0 0 0 0 0 0 0 0 0 0 0 0 0 0 0 0 0 1 1 2 3 2 2 1 0 0 0 0 0 0
8 8 8 7 5 4 3 3 3 2 1 0 0 0 0 0 0 0 0 0 0 0 0 0 0 0 0 0 0 0 0 0 1 1 1 1 1 0 0 0 0 0 0
6 6 7 6 4 4 4 3 3 2 1 0 0 0 0 0 0 0 0 0 0 0 0 0 0 0 0 0 0 0 0 0 0 0 0 0 0 0 0 0 0 0 0
3 4 5 4 3 3 3 3 3 2 1 0 0 0 0 0 0 0 0 0 0 0 0 0 0 0 0 0 0 0 0 0 0 0 0 0 0 0 0 0 0 0 0
2 2 2 1 1 1 2 3 4 2 0 0 0 0 0 0 0 0 0 0 0 0 0 0 0 0 0 0 0 0 0 0 0 0 0 0 0 0 0 0 0 0 0
2 1 1 0 0 0 1 2 3 2 1 0 0 0 0 0 0 0 0 0 0 0 0 0 0 0 0 0 0 0 0 0 0 0 0 0 0 0 0 0 0 0 0
3 2 1 0 0 0 0 1 2 2 1 0 0 0 0 0 0 0 0 0 0 0 0 0 0 0 0 0 0 0 0 0 0 0 0 0 0 0 0 0 0 0 0
3 3 1 0 0 0 0 0 1 1 0 0 0 0 0 0 0 0 0 0 0 0 0 0 0 0 0 0 0 0 0 0 0 0 0 0 0 0 0 0 0 0 0
4 3 2 1 1 0 0 0 0 0 0 0 0 0 0 0 0 0 0 0 0 0 0 0 0 0 0 0 0 0 0 0 0 0 0 0 0 0 0 0 0 0 0
5 4 3 3 2 1 0 0 0 0 0 0 0 0 0 0 0 0 0 0 0 0 0 0 0 0 0 0 0 0 0 0 0 0 0 0 0 0 0 0 0 0 0
5 4 3 3 3 2 1 0 0 0 0 0 0 0 0 0 0 0 0 0 0 0 0 0 0 0 0 0 0 0 0 0 0 0 0 0 0 0 0 0 0 0 0
4 3 3 3 3 2 1 0 0 0 0 0 0 0 0 0 0 0 0 0 0 0 0 0 0 0 0 0 0 0 0 0 0 0 0 0 0 0 0 0 0 0 0
3 3 3 3 3 2 1 0 0 0 0 0 0 0 0 0 0 0 0 0 0 0 0 0 0 0 0 0 0 0 0 0 0 0 0 0 0 0 0 0 0 0 0
3 3 3 3 3 2 1 0 0 0 0 0 0 0 0 0 0 0 0 0 0 0 0 0 0 0 0 0 0 0 0 0 0 0 0 0 0 0 0 0 0 0 0
3 3 3 3 2 2 1 0 0 0 0 0 0 0 0 0 0 0 0 0 0 0 0 0 0 0 0 0 0 0 0 0 0 0 0 0 0 0 0 0 0 0 0
2 2 2 1 1 1 0 0 0 0 0 0 0 0 0 0 0 0 0 0 0 0 0 0 0 0 0 0 0 0 0 0 0 0 0 0 0 0 0 0 0 0 0
1 1 1 0 0 0 0 0 0 0 0 0 0 0 0 0 0 0 0 0 0 0 0 0 0 0 0 0 0 0 0 0 0 0 0 0 0 0 0 0 0 0 0
Wind_Speed
2 2 1 1 1 1 2 2 2 3 3 3 3 4 4 4 4 4 3 10 11 10 11 10 10 9 9 8 8 8 8 8 7 7 7 7 6 7 7 6 6 6 6
3 2 2 1 1 1 1 2 3 3 3 3 3 3 4 4 4 4 3 6 9 10 10 11 10 9 8 8 7 7 8 7 7 7 7 7 7 6 6 6 6 6 6
3 3 2 2 1 1 2 1 2 2 2 3 3 3 3 3 4 4 4 3 4 8 10 9 9 8 8 8 8 8 8 8 8 8 7 7 7 7 7 7 6 6 5
4 3 3 2 2 1 1 2 2 2 2 2 2 2 2 2 4 4 4 4 3 3 6 10 9 8 8 9 8 8 8 8 8 8 7 7 7 6 6 6 6 6 6
4 3 3 2 2 2 1 2 2 2 2 2 2 2 2 2 3 4 4 4 4 4 4 7 10 9 9 9 8 8 8 8 8 8 8 7 7 7 6 6 6 6 6
4 3 3 3 3 2 2 2 2 2 2 2 2 2 1 2 2 3 4 4 4 5 5 5 4 6 9 9 8 8 8 8 8 8 8 7 7 6 6 6 6 5 5
4 4 3 3 3 3 3 3 3 3 1 2 3 1 1 1 1 3 3 3 4 5 5 5 4 3 3 8 8 9 9 9 8 8 8 7 7 6 6 5 5 5 5
4 4 4 3 3 3 3 3 3 2 1 2 3 3 1 2 2 2 2 3 4 3 4 6 4 4 3 2 5 9 9 9 9 9 9 8 7 7 7 6 6 6 6
3 3 4 4 4 4 3 3 3 4 2 1 2 4 4 3 1 1 1 2 3 3 3 4 5 5 5 3 3 7 9 9 10 10 9 9 8 8 8 7 7 7 7
3 3 3 4 4 3 4 4 4 3 4 2 1 1 2 4 3 0 1 1 2 3 3 4 5 5 5 4 5 7 8 8 9 10 10 10 10 9 9 8 8 8 8
2 3 3 3 3 3 4 4 4 4 3 4 3 2 2 1 2 3 2 1 1 2 3 3 3 4 5 5 4 6 8 8 8 9 10 11 11 11 10 10 9 8 8
1 2 3 2 3 3 3 4 4 4 3 4 3 3 3 3 3 3 3 2 2 2 2 3 3 4 4 4 6 8 9 9 9 9 9 10 11 11 10 10 9 9 9
2 3 3 2 2 3 3 3 3 3 4 4 4 3 3 3 3 3 3 2 2 1 1 2 3 3 4 3 4 8 9 9 10 9 9 9 10 10 10 10 9 9 9
3 3 3 3 3 3 3 3 2 3 3 4 4 4 3 3 3 3 4 4 2 1 1 3 2 3 3 3 5 7 5 10 10 10 10 10 10 10 10 10 9 9 8
3 3 3 2 2 2 3 3 2 3 3 3 3 4 3 3 3 3 3 4 5 3 3 3 2 3 3 3 5 4 4 8 10 10 10 10 10 11 11 11 10 10 9
3 3 3 3 2 2 2 2 2 2 3 3 3 3 3 2 2 2 3 2 3 4 3 3 3 3 3 3 4 4 5 7 9 10 10 10 10 10 11 11 11 11 10
3 3 3 3 3 2 2 2 2 3 3 3 3 3 3 3 3 2 2 2 3 3 4 3 2 2 2 3 2 3 3 4 5 9 10 10 10 10 10 11 11 11 11
3 3 3 3 3 3 3 3 3 3 3 3 3 3 3 3 3 3 2 3 3 3 4 4 2 2 3 3 3 3 3 4 4 7 9 10 10 10 10 10 10 10 10
3 3 3 3 3 3 3 3 3 3 3 3 3 4 4 3 3 2 3 3 2 2 3 3 3 2 2 2 2 2 2 2 4 5 7 9 9 9 9 9 10 10 11
3 3 2 3 3 2 3 3 3 3 3 3 3 4 4 4 4 4 3 3 3 2 2 2 2 2 2 2 2 2 2 2 3 3 4 5 6 8 9 10 10 10 11
3 3 2 2 2 2 2 2 2 2 2 2 2 2 3 4 5 4 3 3 3 3 2 2 2 2 2 2 3 2 3 2 2 2 2 3 3 3 5 8 10 10 11
2 2 2 2 2 1 2 3 3 2 2 2 2 2 3 3 4 5 5 6 6 5 4 3 3 3 4 4 3 3 2 2 3 2 2 3 2 4 4 4 8 10 11
2 2 2 2 2 2 2 3 3 2 2 3 3 2 2 2 3 2 3 4 5 6 7 5 5 5 5 5 4 4 4 4 4 3 2 3 3 4 4 6 10 11 11
2 2 2 2 2 3 2 2 2 2 2 2 3 3 3 2 2 2 2 1 2 3 5 5 5 6 5 5 5 5 4 3 3 2 3 3 3 3 4 4 8 11 11
2 2 1 2 2 3 3 3 2 1 1 1 2 2 2 2 3 3 2 2 2 4 4 6 6 7 7 6 4 2 2 2 3 3 3 3 3 2 2 3 5 9 10
2 2 1 1 2 2 3 3 3 1 1 1 1 1 2 3 3 4 3 3 4 4 3 3 4 5 5 5 6 6 5 4 3 3 3 3 2 1 2 2 2 2 4
Wind_Direction
161 162 168 170 177 180 178 163 171 158 152 150 148 151 154 160 159 162 171 177 176 176 180 177 175 173 170 169 168 167 164 164 164 166 166 168 172 178 179 179 179 178 183
156 159 161 165 177 180 164 154 160 147 148 144 142 151 154 158 160 163 166 179 180 177 180 179 176 176 174 173 175 175 172 174 174 174 174 176 179 178 178 179 182 184 187
155 157 157 167 182 165 143 122 120 119 136 140 145 155 156 165 167 171 167 167 174 180 180 177 172 174 177 180 181 182 180 178 179 181 179 179 181 181 180 181 182 185 187
154 154 159 173 175 149 146 140 135 130 130 133 146 158 154 163 176 176 169 166 168 177 187 185 178 179 181 184 185 186 186 183 183 185 183 181 177 178 182 185 187 188 192
157 153 164 171 158 136 137 156 134 135 137 144 153 154 160 170 179 174 173 175 178 179 186 192 187 187 190 192 192 193 193 190 189 190 191 187 185 185 187 189 190 193 196
163 157 159 162 153 140 141 145 138 131 145 156 149 133 171 193 180 180 187 181 182 186 186 187 189 200 202 202 201 204 202 199 199 198 197 193 191 188 191 196 198 202 204
170 160 159 159 159 162 172 164 145 139 136 131 105 64 1 326 217 193 187 179 184 189 182 187 187 195 211 215 215 215 212 210 205 204 199 196 194 189 193 197 203 203 205
174 171 162 165 165 161 160 154 141 141 141 134 130 115 40 347 316 222 189 188 185 177 186 193 188 197 205 209 220 220 217 214 210 207 204 197 192 194 198 200 204 207 208
173 170 165 164 166 166 174 175 162 156 162 180 146 144 151 203 271 316 235 203 186 182 196 194 197 204 204 206 215 223 217 214 214 213 206 198 195 201 206 208 212 212 213
173 172 167 165 170 171 175 185 172 162 156 175 191 161 156 155 154 221 319 270 210 200 201 201 202 208 207 206 208 208 211 209 211 213 206 202 204 206 208 212 216 218 219
178 167 166 166 173 181 184 183 169 170 169 172 174 163 146 125 134 147 205 257 279 243 215 204 200 205 207 205 203 208 209 209 209 211 210 209 210 209 210 215 218 221 224
185 176 169 170 176 182 188 188 182 178 183 178 175 168 162 160 172 163 183 206 221 253 235 218 207 206 205 200 208 208 207 207 209 211 213 214 214 212 212 216 221 224 228
196 200 188 183 185 187 184 180 181 190 189 185 189 190 187 187 168 160 160 184 212 261 265 244 223 209 205 194 206 210 207 205 207 210 213 217 219 219 218 222 227 230 233
199 192 188 187 187 185 183 174 181 200 195 196 200 195 193 201 179 169 164 159 168 266 264 252 248 219 210 199 210 209 210 208 209 211 214 217 219 220 222 226 227 228 229
187 183 182 183 185 187 185 172 189 207 196 199 205 203 202 207 190 185 172 166 163 191 240 243 237 231 212 202 208 202 206 213 214 215 217 219 220 222 221 220 222 223 224
176 177 181 176 184 189 182 178 190 199 197 207 201 194 203 205 195 191 186 183 174 175 212 232 226 221 209 207 205 199 211 215 217 220 222 222 223 225 226 223 222 222 223
174 177 183 176 179 185 186 184 198 198 200 208 209 196 209 199 191 197 189 188 190 175 203 243 229 214 197 206 216 212 211 211 219 222 223 224 225 227 227 226 224 224 223
169 171 174 174 180 180 183 185 195 195 193 200 211 201 215 208 198 200 192 202 206 194 187 215 229 211 216 212 211 217 222 217 217 226 226 226 226 227 226 227 227 225 223
165 163 163 171 187 191 188 190 191 199 203 204 200 199 211 197 202 201 193 200 208 203 185 191 225 218 224 213 198 228 232 233 228 228 228 229 229 228 229 230 230 228 226
157 165 168 174 185 196 195 197 194 203 209 211 205 207 207 195 199 198 196 198 193 188 190 192 216 226 226 218 176 208 248 250 245 236 232 226 228 234 235 234 234 233 229
160 163 158 167 180 186 195 194 200 200 198 202 208 211 213 208 206 198 194 194 185 186 192 202 221 228 231 208 211 205 225 245 259 228 224 235 227 233 236 239 237 234 230
166 159 165 179 186 214 215 198 189 190 202 206 220 227 231 221 212 210 208 203 191 188 197 201 218 221 233 224 215 204 202 207 257 235 194 246 213 233 238 232 232 228 228
167 169 177 181 198 228 225 217 208 189 202 216 218 216 232 221 196 202 215 224 225 221 207 200 212 224 225 218 201 208 211 213 231 223 176 250 233 240 243 241 231 229 227
177 187 198 202 209 230 231 233 225 196 201 223 221 213 210 210 204 186 191 217 245 245 228 213 217 230 230 222 208 210 213 226 257 241 187 231 242 241 251 243 236 229 228
198 209 196 193 210 238 232 221 198 173 187 239 233 212 194 195 217 197 173 211 256 270 260 233 234 240 241 237 215 183 199 203 248 252 204 203 236 248 256 252 244 232 229
197 200 205 210 209 225 228 205 171 158 173 258 274 248 225 215 223 209 197 205 237 257 261 263 262 263 251 241 222 203 203 207 220 244 218 191 217 197 277 268 249 233 232